Marshfield, WI

4:29 AM CST on January 17, 2019 (GMT -0600)
Marshfield Municipal

Weather History for KMFI - January, 2019

Change the Weather History Date:

Saturday, January 12, 2019

  Actual Average Record
Temperature  
Mean Temperature 26 °F -  
Max Temperature 28 °F 21 °F 44 °F (2013)
Min Temperature 23 °F 1 °F -23 °F (1974)
Degree Days  
Heating Degree Days 40    
Moisture  
Dew Point 23 °F    
Average Humidity 88    
Maximum Humidity 100    
Minimum Humidity 78    
Precipitation  
Precipitation 0.00 in - - ()
Sea Level Pressure  
Sea Level Pressure 30.40 in    
Wind  
Wind Speed 10 mph (East)    
Max Wind Speed 15 mph    
Max Gust Speed 24 mph    
Visibility 6 miles    
Events      
Averages and records for this station are not official NWS values.
T = Trace of Precipitation, MM = Missing Value Source: NWS Daily Summary

Daily Weather History Graph

Daily Weather History Graph

Search for Another Location

Airport or City:

Astronomy

Jan. 12, 2019 Rise Set
Actual Time 7:35 AM CST 4:42 PM CST
Civil Twilight 7:03 AM CST 5:15 PM CST
Nautical Twilight 6:26 AM CST 5:51 PM CST
Astronomical Twilight 5:51 AM CST 6:26 PM CST
Moon 11:08 AM CST (1/12) 11:15 PM CST (1/12)
Length of Visible Light 10h 12m
Length of Day
9h 06m
Waxing Crescent, 35% of the Moon is Illuminated
Jan 12
Waxing Crescent
Jan 14
First Quarter
Jan 20
Full
Jan 27
Last Quarter
Feb 4
New

Hourly Weather History & Observations

Time (CST) Temp. Windchill Dew Point Humidity Pressure Visibility Wind Dir Wind Speed Gust Speed Precip Events Conditions
12:54 AM 23.0 °F 14.7 °F 19.0 °F 85% 30.33 in 7.0 mi ENE 6.9 mph - N/A   Overcast
1:54 AM 24.1 °F 16.0 °F 19.9 °F 84% 30.34 in 7.0 mi East 6.9 mph - N/A   Overcast
2:54 AM 24.1 °F 15.2 °F 21.0 °F 88% 30.35 in 6.0 mi East 8.1 mph - N/A   Overcast
3:54 AM 24.1 °F 15.2 °F 21.0 °F 88% 30.35 in 6.0 mi East 8.1 mph - N/A   Overcast
4:52 AM 24.8 °F 15.3 °F 19.4 °F 80% 30.29 in 6.0 mi East 9.2 mph - N/A   Haze
4:54 AM 25.0 °F 15.5 °F 19.9 °F 81% 30.36 in 6.0 mi East 9.2 mph - N/A   Haze
5:29 AM 25.0 °F 15.5 °F 19.9 °F 81% 30.31 in 7.0 mi East 9.2 mph - N/A   Overcast
5:54 AM 25.0 °F 15.5 °F 19.0 °F 78% 30.38 in 7.0 mi East 9.2 mph - N/A   Overcast
6:12 AM 25.0 °F 14.8 °F 19.0 °F 78% 30.31 in 7.0 mi East 10.4 mph - N/A   Overcast
6:54 AM 25.0 °F 16.3 °F 19.0 °F 78% 30.38 in 7.0 mi East 8.1 mph - N/A   Overcast
7:54 AM 25.0 °F 16.3 °F 19.0 °F 78% 30.40 in 7.0 mi East 8.1 mph - N/A   Overcast
8:54 AM 26.1 °F 15.6 °F 19.9 °F 78% 30.42 in 6.0 mi East 11.5 mph - N/A   Haze
9:54 AM 27.0 °F 15.6 °F 21.9 °F 81% 30.45 in 6.0 mi East 13.8 mph - N/A   Haze
10:14 AM 27.0 °F 16.7 °F 21.9 °F 81% 30.38 in 6.0 mi East 11.5 mph - N/A   Haze
10:45 AM 28.0 °F 17.5 °F 23.0 °F 81% 30.38 in 5.0 mi East 12.7 mph - N/A   Haze
10:54 AM 28.0 °F 18.6 °F 23.0 °F 81% 30.44 in 5.0 mi East 10.4 mph - N/A   Haze
11:11 AM 28.0 °F 18.1 °F 24.1 °F 85% 30.37 in 4.0 mi East 11.5 mph - N/A   Overcast
11:39 AM 28.0 °F 17.5 °F 25.0 °F 88% 30.36 in 2.5 mi East 12.7 mph - N/A   Overcast
11:54 AM 28.0 °F 18.1 °F 26.1 °F 92% 30.43 in 1.8 mi East 11.5 mph - N/A   Overcast
12:08 PM 28.0 °F 20.0 °F 27.0 °F 96% 30.36 in 1.5 mi East 8.1 mph - N/A   Overcast
12:21 PM 28.0 °F 18.1 °F 27.0 °F 96% 30.36 in 1.0 mi East 11.5 mph - N/A   Overcast
12:32 PM 28.0 °F 18.1 °F 27.0 °F 96% 30.36 in 0.8 mi East 11.5 mph - N/A   Overcast
12:54 PM 28.0 °F 19.3 °F 28.0 °F 100% 30.42 in 1.0 mi East 9.2 mph - N/A   Overcast
1:05 PM 28.0 °F 18.1 °F 27.0 °F 96% 30.35 in 1.5 mi East 11.5 mph - N/A   Overcast
1:16 PM 28.0 °F 19.3 °F 27.0 °F 96% 30.35 in 2.5 mi East 9.2 mph - N/A   Overcast
1:29 PM 28.0 °F 18.6 °F 28.0 °F 100% 30.35 in 3.0 mi East 10.4 mph - N/A   Overcast
1:45 PM 28.9 °F 19.8 °F 28.0 °F 96% 30.35 in 2.5 mi East 10.4 mph - N/A   Overcast
1:54 PM 28.9 °F 19.8 °F 28.0 °F 96% 30.41 in 2.5 mi East 10.4 mph - N/A   Overcast
2:16 PM 28.9 °F 19.2 °F 27.0 °F 92% 30.36 in 3.0 mi East 11.5 mph - N/A   Overcast
2:49 PM 28.4 °F 18.5 °F 26.6 °F 93% 30.36 in 5.0 mi East 11.5 mph 20.7 mph N/A   Overcast
2:54 PM 28.9 °F 18.6 °F 27.0 °F 92% 30.43 in 5.0 mi East 12.7 mph - N/A   Overcast
3:11 PM 28.9 °F 18.2 °F 27.0 °F 92% 30.37 in 5.0 mi East 13.8 mph - N/A   Overcast
3:36 PM 27.0 °F 16.1 °F 26.1 °F 96% 30.37 in 5.0 mi East 12.7 mph - N/A   Overcast
3:54 PM 27.0 °F 15.6 °F 25.0 °F 92% 30.44 in 3.0 mi East 13.8 mph - N/A   Overcast
4:44 PM 26.1 °F 15.6 °F 25.0 °F 96% 30.39 in 5.0 mi East 11.5 mph - N/A   Overcast
4:54 PM 26.1 °F 14.0 °F 25.0 °F 96% 30.46 in 5.0 mi East 15.0 mph - N/A   Overcast
5:31 PM 26.1 °F 14.0 °F 23.0 °F 88% 30.41 in 10.0 mi East 15.0 mph 24.2 mph N/A   Overcast
5:54 PM 25.0 °F 12.6 °F 23.0 °F 92% 30.48 in 10.0 mi East 15.0 mph - N/A   Overcast
6:28 PM 25.0 °F 14.2 °F 21.9 °F 88% 30.41 in 10.0 mi East 11.5 mph - N/A   Overcast
6:54 PM 25.0 °F 14.2 °F 21.0 °F 85% 30.48 in 10.0 mi East 11.5 mph - N/A   Overcast
7:54 PM 25.0 °F 16.3 °F 21.0 °F 85% 30.48 in 10.0 mi East 8.1 mph - N/A   Overcast
8:54 PM 25.0 °F 14.2 °F 21.0 °F 85% 30.48 in 10.0 mi East 11.5 mph - N/A   Overcast
9:46 PM 25.0 °F 14.8 °F 21.0 °F 85% 30.42 in 10.0 mi East 10.4 mph - N/A   Overcast
9:54 PM 25.0 °F 14.2 °F 21.0 °F 85% 30.49 in 10.0 mi East 11.5 mph - N/A   Overcast
10:16 PM 25.0 °F 12.6 °F 19.9 °F 81% 30.43 in 10.0 mi East 15.0 mph 21.9 mph N/A   Overcast
10:38 PM 24.1 °F 12.5 °F 19.0 °F 81% 30.43 in 10.0 mi East 12.7 mph - N/A   Overcast
10:54 PM 24.1 °F 13.1 °F 19.0 °F 81% 30.49 in 10.0 mi East 11.5 mph - N/A   Overcast
11:54 PM 23.0 °F 12.4 °F 19.0 °F 85% 30.49 in 10.0 mi East 10.4 mph - N/A   Overcast